TimeEST,TemperatureF,Dew PointF,Humidity,Sea Level PressureIn,VisibilityMPH,Wind Direction,Wind SpeedMPH,Gust SpeedMPH,PrecipitationIn,Events,Conditions,WindDirDegrees,DateUTC
12:51 AM,19.9,17.1,89,30.42,10.0,NW,8.1,-,N/A,,Overcast,310,2013-02-22 05:51:00
1:51 AM,19.9,17.1,89,30.40,10.0,NNW,8.1,-,N/A,,Overcast,330,2013-02-22 06:51:00
2:51 AM,19.9,17.1,89,30.40,10.0,North,3.5,-,N/A,,Overcast,350,2013-02-22 07:51:00
3:51 AM,19.9,17.1,89,30.40,10.0,Calm,Calm,-,N/A,,Overcast,0,2013-02-22 08:51:00
4:51 AM,19.9,17.1,89,30.40,10.0,Calm,Calm,-,N/A,,Overcast,0,2013-02-22 09:51:00
5:51 AM,19.0,17.1,92,30.42,10.0,Calm,Calm,-,N/A,,Overcast,0,2013-02-22 10:51:00
6:08 AM,19.4,17.6,93,30.36,10.0,Calm,Calm,-,N/A,,Overcast,0,2013-02-22 11:08:00
6:51 AM,18.0,16.0,92,30.45,10.0,Calm,Calm,-,N/A,,Mostly Cloudy,0,2013-02-22 11:51:00
7:51 AM,21.2,17.6,86,30.41,10.0,Calm,Calm,-,N/A,,Mostly Cloudy,0,2013-02-22 12:51:00
7:59 AM,19.4,15.8,86,30.41,7.0,ENE,3.5,-,N/A,,Mostly Cloudy,70,2013-02-22 12:59:00
8:19 AM,21.2,17.6,86,30.41,10.0,Calm,Calm,-,N/A,,Mostly Cloudy,0,2013-02-22 13:19:00
8:51 AM,21.9,18.0,85,30.47,10.0,Calm,Calm,-,N/A,,Overcast,0,2013-02-22 13:51:00
9:51 AM,24.1,19.0,81,30.46,10.0,Calm,Calm,-,N/A,,Overcast,0,2013-02-22 14:51:00
10:51 AM,26.6,19.4,74,30.39,10.0,Calm,Calm,-,N/A,,Overcast,0,2013-02-22 15:51:00
11:51 AM,27.0,19.0,72,30.44,10.0,Calm,Calm,-,N/A,,Overcast,0,2013-02-22 16:51:00
12:51 PM,28.0,19.9,72,30.41,10.0,Calm,Calm,-,N/A,,Overcast,0,2013-02-22 17:51:00
1:51 PM,30.0,18.0,61,30.38,10.0,Calm,Calm,-,N/A,,Mostly Cloudy,0,2013-02-22 18:51:00
2:05 PM,30.2,17.6,60,30.31,10.0,SE,3.5,-,N/A,,Scattered Clouds,140,2013-02-22 19:05:00
2:51 PM,30.0,18.0,61,30.38,10.0,Calm,Calm,-,N/A,,Clear,0,2013-02-22 19:51:00
3:51 PM,30.0,19.0,64,30.35,10.0,Calm,Calm,-,N/A,,Clear,0,2013-02-22 20:51:00
4:51 PM,30.0,19.0,64,30.34,10.0,Calm,Calm,-,N/A,,Clear,0,2013-02-22 21:51:00
5:51 PM,25.0,18.0,75,30.34,10.0,Calm,Calm,-,N/A,,Clear,0,2013-02-22 22:51:00
6:51 PM,26.1,19.0,75,30.36,10.0,Calm,Calm,-,N/A,,Clear,0,2013-02-22 23:51:00
7:51 PM,26.1,19.9,78,30.34,10.0,Calm,Calm,-,N/A,,Clear,0,2013-02-23 00:51:00
8:51 PM,25.0,19.9,81,30.33,10.0,SE,3.5,-,N/A,,Clear,140,2013-02-23 01:51:00
9:51 PM,25.0,19.9,81,30.32,10.0,Calm,Calm,-,N/A,,Overcast,0,2013-02-23 02:51:00
10:51 PM,28.9,19.0,67,30.31,10.0,South,6.9,-,N/A,,Overcast,170,2013-02-23 03:51:00
11:51 PM,28.9,19.0,67,30.30,10.0,SSE,6.9,-,N/A,,Overcast,160,2013-02-23 04:51:00